Location: Powder Track
(41.8531°N, 72.3584°W)
Time: 12:12:31
(UTC+00:00)

A-11 Canister half - All Passes

Search period start: 04 August 2021 00:00
Search period end: 14 August 2021 00:00
Orbit: 1513 x 1687 km, 47.2° (Epoch: 04 August)

Date Brightness Start Highest point End Pass type
(mag) Time Alt. Az. Time Alt. Az. Time Alt. Az.
04 Aug - 00:06:56 10° W 00:16:52 65° N 00:27:00 10° E daylight
04 Aug - 02:12:27 10° WNW 02:22:37 89° SSW 02:32:51 10° ESE visible
04 Aug - 04:18:00 10° WNW 04:26:59 37° SW 04:35:57 10° SSE visible
04 Aug - 19:34:37 10° SSW 19:43:27 44° SE 19:52:37 10° ENE daylight
04 Aug - 21:38:12 10° WSW 21:47:58 84° NNW 21:58:08 10° ENE daylight
04 Aug - 23:43:57 10° W 23:53:50 65° N 00:03:58 10° E daylight
05 Aug - 01:49:30 10° WNW 01:59:39 89° NNE 02:09:54 10° ESE visible
05 Aug - 03:54:58 10° WNW 04:04:06 40° SW 04:13:14 10° SSE visible
05 Aug - 19:11:54 10° SSW 19:20:35 41° SE 19:29:35 10° ENE daylight
05 Aug - 21:15:16 10° WSW 21:25:00 86° NNW 21:35:08 10° ENE daylight
05 Aug - 23:20:59 10° W 23:30:49 65° N 23:40:57 10° E daylight
06 Aug - 01:26:32 10° WNW 01:36:40 86° NNE 01:46:55 10° ESE visible
06 Aug - 03:31:58 10° WNW 03:41:13 42° SW 03:50:30 10° SSE visible
06 Aug - 18:49:12 10° SSW 18:57:44 39° SE 19:06:33 10° ENE daylight
06 Aug - 20:52:21 10° WSW 21:02:03 89° NNW 21:12:09 10° ENE daylight
06 Aug - 22:58:00 10° W 23:07:48 65° N 23:17:54 10° E daylight
07 Aug - 01:03:36 10° WNW 01:13:41 84° NNE 01:23:56 10° ESE visible
07 Aug - 03:08:57 10° WNW 03:18:20 45° SW 03:27:44 10° SSE visible
07 Aug - 05:20:10 10° WSW 05:21:23 10° WSW 05:22:35 10° SW visible
07 Aug - 18:26:32 10° SSW 18:34:52 36° SE 18:43:30 10° ENE daylight
07 Aug - 20:29:26 10° WSW 20:39:05 89° SSE 20:49:10 10° ENE daylight
07 Aug - 22:35:01 10° W 22:44:48 65° N 22:54:53 10° E daylight
08 Aug - 00:40:39 10° WNW 00:50:43 82° NNE 01:00:58 10° ESE visible
08 Aug - 02:45:58 10° WNW 02:55:26 47° SW 03:04:58 10° SSE visible
08 Aug - 04:55:32 10° WSW 04:58:35 12° WSW 05:01:36 10° SW visible
08 Aug - 18:03:53 10° SSW 18:12:02 34° SE 18:20:26 10° ENE daylight
08 Aug - 20:06:32 10° WSW 20:16:09 86° SSE 20:26:11 10° ENE daylight
08 Aug - 22:12:02 10° W 22:21:47 65° N 22:31:51 10° ENE daylight
09 Aug - 00:17:41 10° WNW 00:27:43 80° NNE 00:37:57 10° ESE visible
09 Aug - 02:22:58 10° WNW 02:32:31 50° SW 02:42:10 10° SSE visible
09 Aug - 04:31:42 10° W 04:35:45 13° WSW 04:39:50 10° SW visible
09 Aug - 17:41:15 10° S 17:49:12 32° SE 17:57:22 10° ENE daylight
09 Aug - 19:43:39 10° WSW 19:53:13 83° SSE 20:03:12 10° ENE daylight
09 Aug - 21:49:04 10° W 21:58:47 65° N 22:08:50 10° ENE daylight
09 Aug - 23:54:44 10° WNW 00:04:44 78° NNE 00:14:58 10° ESE daylight
10 Aug - 02:00:00 10° WNW 02:09:37 53° SW 02:19:21 10° SSE visible
10 Aug - 04:08:07 10° W 04:12:56 15° WSW 04:17:46 10° SSW visible
10 Aug - 17:18:39 10° S 17:26:22 29° SE 17:34:18 10° ENE daylight
10 Aug - 19:20:46 10° SW 19:30:17 80° SSE 19:40:13 10° ENE daylight
10 Aug - 21:26:06 10° W 21:35:46 66° N 21:45:49 10° ENE daylight
10 Aug - 23:31:47 10° WNW 23:41:45 76° NNE 23:51:57 10° ESE daylight
11 Aug - 01:37:01 10° WNW 01:46:42 56° SW 01:56:31 10° SE visible
11 Aug - 03:44:40 10° W 03:50:07 16° WSW 03:55:35 10° SSW visible
11 Aug - 16:56:05 10° S 17:03:32 27° SE 17:11:11 10° ENE daylight
11 Aug - 18:57:53 10° SW 19:07:21 77° SSE 19:17:14 10° ENE daylight
11 Aug - 21:03:08 10° W 21:12:47 67° N 21:22:48 10° ENE daylight
11 Aug - 23:08:50 10° WNW 23:18:45 74° NNE 23:28:56 10° ESE daylight
12 Aug - 01:14:03 10° WNW 01:23:48 58° SW 01:33:40 10° SE visible
12 Aug - 03:21:18 10° W 03:27:17 18° SW 03:33:17 10° SSW visible
12 Aug - 16:33:32 10° S 16:40:43 25° SE 16:48:04 10° ENE daylight
12 Aug - 18:35:02 10° SW 18:44:27 74° SSE 18:54:15 10° ENE daylight
12 Aug - 20:40:10 10° W 20:49:47 67° N 20:59:47 10° ENE daylight
12 Aug - 22:45:54 10° WNW 22:55:46 73° NNE 23:05:56 10° E daylight
13 Aug - 00:51:06 10° WNW 01:00:52 61° SW 01:10:49 10° SE visible
13 Aug - 02:58:02 10° W 03:04:27 19° SW 03:10:54 10° SSW visible
13 Aug - 16:11:01 10° S 16:17:54 23° SE 16:24:56 10° E daylight
13 Aug - 18:12:11 10° SW 18:21:32 71° SE 18:31:16 10° ENE daylight
13 Aug - 20:17:12 10° W 20:26:47 68° N 20:36:46 10° ENE daylight
13 Aug - 22:22:56 10° WNW 22:32:46 71° NNE 22:42:54 10° E daylight
